Weather History for West Palm Beach, FL

Change the Weather History Date:

Tuesday, January 21, 2014

  Actual Average Record
Temperature  
Mean Temperature 67 °F 66 °F  
Max Temperature 74 °F 75 °F 86 °F (1990)
Min Temperature 59 °F 57 °F 32 °F (1985)
Degree Days  
Heating Degree Days 0 3  
Month to date heating degree days 69 63  
Since 1 July heating degree days 73 134  
Cooling Degree Days 2 3  
Month to date cooling degree days 98 70  
Year to date cooling degree days 98 70  
Growing Degree Days 16 (Base 50)    
Moisture  
Dew Point 57 °F    
Average Humidity 72    
Maximum Humidity 90    
Minimum Humidity 53    
Precipitation  
Precipitation T in 0.10 in 6.29 in (1957)
Month to date precipitation 6.72 2.19  
Year to date precipitation 6.72 2.19  
Snow  
Snow 0.00 in - - ()
Month to date snowfall 0.0  
Since 1 July snowfall 0.0  
Snow Depth 0.00 in    
Sea Level Pressure  
Sea Level Pressure 29.96 in    
Wind  
Wind Speed 11 mph (SW)    
Max Wind Speed 22 mph    
Max Gust Speed 26 mph    
Visibility 10 miles    
Events      
T = Trace of Precipitation, MM = Missing Value Source: NWS Daily Summary

Daily Weather History Graph

Daily Weather History Graph

Search for Another Location

Airport:

Trip Planner

Search our weather history database for the weather conditions in past years. The results will help you decide how hot, cold, wet, or windy it might be!

Date:

Astronomy

Jan. 21, 2014 Rise Set
Actual Time 7:09 AM EST 5:54 PM EST
Civil Twilight 6:44 AM EST 6:18 PM EST
Nautical Twilight 6:16 AM EST 6:47 PM EST
Astronomical Twilight 5:48 AM EST 7:14 PM EST
Moon 10:50 PM EST (1/21) 10:10 AM EST (1/21)
Length of Visible Light 11h 34m
Length of Day
10h 44m
Waning Gibbous, 75% of the Moon is Illuminated
Jan 21
Waning Gibbous
Jan 24
Last Quarter
Jan 30
New
Feb 6
First Quarter
Feb 14
Full

Hourly Weather History & Observations

Time (EST) Temp. Dew Point Humidity Pressure Visibility Wind Dir Wind Speed Gust Speed Precip Events Conditions
12:53 AM 62.1 °F 55.9 °F 80% 30.05 in 10.0 mi WSW 3.5 mph - N/A   Mostly Cloudy
1:53 AM 60.1 °F 55.9 °F 86% 30.04 in 10.0 mi SSW 4.6 mph - N/A   Mostly Cloudy
2:53 AM 60.1 °F 55.9 °F 86% 30.02 in 10.0 mi Calm Calm - N/A   Mostly Cloudy
3:53 AM 59.0 °F 55.9 °F 90% 30.01 in 10.0 mi West 3.5 mph - N/A   Mostly Cloudy
4:53 AM 61.0 °F 55.9 °F 83% 30.00 in 10.0 mi SSW 6.9 mph - N/A   Mostly Cloudy
5:53 AM 62.1 °F 55.9 °F 80% 30.01 in 10.0 mi SW 5.8 mph - N/A   Overcast
6:53 AM 63.0 °F 55.9 °F 78% 30.00 in 10.0 mi SSW 9.2 mph - N/A   Overcast
7:53 AM 64.0 °F 55.9 °F 75% 30.00 in 10.0 mi SW 8.1 mph - N/A   Mostly Cloudy
8:18 AM 64.9 °F 57.9 °F 78% 30.00 in 10.0 mi WSW 8.1 mph - N/A   Mostly Cloudy
8:53 AM 66.0 °F 61.0 °F 84% 30.01 in 10.0 mi West 11.5 mph - N/A   Mostly Cloudy
9:07 AM 66.0 °F 60.1 °F 81% 30.01 in 10.0 mi West 11.5 mph - N/A   Mostly Cloudy
9:53 AM 69.1 °F 59.0 °F 70% 30.02 in 10.0 mi West 12.7 mph - N/A   Mostly Cloudy
10:53 AM 69.1 °F 59.0 °F 70% 30.00 in 10.0 mi WSW 9.2 mph - N/A   Overcast
11:53 AM 71.1 °F 61.0 °F 70% 29.96 in 10.0 mi SW 11.5 mph - N/A   Overcast
12:53 PM 71.1 °F 60.1 °F 68% 29.93 in 10.0 mi SW 17.3 mph 26.5 mph N/A   Overcast
1:53 PM 73.0 °F 57.9 °F 59% 29.90 in 10.0 mi WSW 12.7 mph - N/A   Mostly Cloudy
2:53 PM 73.0 °F 55.9 °F 55% 29.87 in 10.0 mi SW 19.6 mph 25.3 mph N/A   Mostly Cloudy
3:53 PM 71.1 °F 55.0 °F 57% 29.87 in 10.0 mi SW 17.3 mph 23.0 mph 0.00 in   Mostly Cloudy
4:53 PM 69.1 °F 55.9 °F 63% 29.88 in 10.0 mi SW 13.8 mph - N/A   Overcast
5:53 PM 66.0 °F 57.0 °F 73% 29.89 in 10.0 mi SW 15.0 mph - 0.00 in   Mostly Cloudy
6:53 PM 64.0 °F 57.0 °F 78% 29.90 in 10.0 mi SW 12.7 mph - N/A   Scattered Clouds
7:53 PM 64.0 °F 57.9 °F 80% 29.90 in 10.0 mi SW 13.8 mph - N/A   Mostly Cloudy
8:53 PM 63.0 °F 57.0 °F 81% 29.90 in 10.0 mi SW 13.8 mph - N/A   Partly Cloudy
9:53 PM 62.1 °F 57.9 °F 86% 29.90 in 10.0 mi SW 11.5 mph - N/A   Partly Cloudy
10:53 PM 62.1 °F 59.0 °F 90% 29.90 in 10.0 mi SW 15.0 mph - N/A   Scattered Clouds
11:53 PM 62.1 °F 59.0 °F 90% 29.89 in 10.0 mi WSW 15.0 mph - N/A   Scattered Clouds